Theta_e
328 327 324 323 322 321 323 323 324 320 318 314 312 311 311 311 313 316 322 322 322 326 325 325 326 328 329 330 333 332 332 333 330 329 331 332 333 340 341 339 342 342 339 337 339 340 341 343 341 340 340 343 339 341
329 328 327 324 322 321 322 323 323 323 320 316 313 312 310 311 312 316 322 321 321 323 325 323 323 323 324 326 328 329 332 331 335 336 335 337 341 341 343 341 338 345 345 349 342 343 343 336 338 340 344 342 341 342
329 328 327 326 323 321 320 320 322 323 321 317 314 312 311 310 311 312 317 320 320 325 326 327 329 328 326 325 325 329 329 329 329 330 333 336 341 343 344 342 339 337 335 340 344 342 336 335 335 337 339 338 337 337
328 328 327 326 325 321 320 318 319 320 321 318 316 312 311 310 311 311 317 319 320 322 329 328 324 325 326 325 326 326 326 327 328 329 330 331 332 330 335 340 339 339 337 339 339 338 336 339 340 337 336 335 335 335
323 323 324 325 324 322 320 317 317 318 319 319 316 314 312 310 310 312 317 320 320 322 326 324 322 326 326 326 326 326 326 327 328 329 330 331 330 331 333 334 334 335 340 338 334 339 341 340 338 336 335 334 333 332
319 318 319 321 322 321 319 316 316 317 317 317 316 314 312 310 311 316 324 321 321 320 323 326 324 326 325 327 328 328 329 329 329 329 330 330 329 331 334 335 335 333 334 333 340 336 336 334 332 332 334 334 333 332
316 315 317 316 315 316 314 313 314 316 317 317 316 314 312 310 311 319 323 321 320 320 324 327 329 329 327 327 328 330 329 330 329 330 331 331 330 331 331 334 335 332 332 333 332 332 332 331 333 334 334 333 333 332
314 313 312 310 310 309 309 310 312 314 316 316 315 313 311 310 313 318 317 316 317 319 321 328 330 329 328 329 330 329 330 329 329 329 330 331 331 331 333 333 334 332 333 333 333 332 332 334 335 336 337 338 337 336
311 309 308 307 307 307 307 309 310 313 315 315 314 312 311 313 320 323 319 316 317 321 328 328 329 331 328 329 329 329 332 332 330 331 330 330 332 334 332 335 334 331 332 332 333 335 335 337 339 339 341 341 341 338
308 307 306 306 305 306 306 308 310 312 314 313 311 314 318 321 319 318 319 322 322 321 321 324 324 329 328 328 329 329 333 334 334 333 331 334 333 333 334 331 333 336 334 337 337 338 340 339 340 341 342 342 342 341
305 305 305 305 305 305 306 307 309 313 312 312 315 318 320 318 319 321 326 326 326 326 323 324 324 327 326 328 329 329 331 335 336 335 335 335 336 335 335 334 338 334 337 337 337 338 337 337 338 341 342 344 343 340
303 304 304 304 304 304 306 307 309 313 314 316 319 319 320 320 320 324 326 326 326 328 327 327 327 325 326 327 328 330 331 332 333 334 336 336 337 341 337 333 336 338 337 336 335 335 334 335 336 338 341 344 341 338
302 303 303 303 303 304 305 307 310 313 315 317 317 321 321 322 323 324 328 328 328 327 328 327 328 327 327 328 330 333 333 333 331 334 335 333 338 339 340 338 337 336 334 333 332 332 331 332 332 336 340 341 345 346
302 302 302 302 302 303 304 306 309 312 313 318 319 316 323 323 325 326 327 330 328 329 326 328 328 328 327 330 331 332 331 330 332 332 334 345 346 344 338 336 335 334 332 331 330 330 329 330 331 332 336 339 340 343
301 301 302 302 302 303 304 307 308 311 313 317 320 324 322 322 324 325 325 326 326 326 328 328 328 327 329 330 331 332 333 334 332 334 343 344 343 341 336 334 332 331 330 330 329 329 329 328 329 329 329 334 340 341
301 301 302 302 302 303 304 306 310 311 312 315 318 321 321 322 323 323 325 326 326 325 326 326 328 329 329 329 330 330 330 330 336 338 340 340 341 338 335 332 332 331 331 329 329 329 328 328 327 327 327 330 336 339
300 303 304 302 302 303 304 309 310 311 313 315 317 318 320 322 324 323 323 323 323 324 325 328 328 328 327 331 329 328 328 331 331 333 337 336 339 338 335 333 332 331 331 330 330 329 329 328 326 327 332 328 327 333
302 302 303 302 302 304 305 308 311 312 314 314 316 316 316 317 320 323 322 323 324 326 330 327 322 328 330 330 330 330 328 329 331 331 327 334 338 335 332 334 332 331 331 330 329 329 328 328 328 327 326 326 326 328
302 305 303 302 304 308 309 310 311 313 314 313 313 314 315 317 318 319 321 323 325 323 324 323 327 326 325 324 327 327 326 331 327 328 327 328 330 332 333 330 329 331 330 331 330 328 327 326 326 326 325 325 325 326
303 305 304 303 307 309 311 312 310 313 314 314 314 314 315 316 315 316 317 319 326 325 324 323 322 321 320 321 323 324 324 323 324 324 327 325 325 326 328 326 326 328 329 329 329 328 329 327 325 325 325 325 325 325
301 302 304 303 304 308 312 313 313 313 312 312 313 314 315 315 315 316 316 316 319 321 321 321 320 319 319 320 321 320 323 323 323 322 325 325 324 323 323 323 323 323 323 324 326 325 325 327 325 324 324 325 324 324
303 302 304 305 308 308 310 311 314 316 316 315 315 314 314 315 315 316 316 318 317 317 318 319 320 320 321 323 322 321 321 321 322 322 321 321 323 324 324 322 321 322 322 322 321 324 326 323 322 321 322 324 324 324
304 304 307 307 308 309 310 310 312 312 313 314 314 314 314 315 316 315 316 316 316 317 317 318 320 320 322 320 319 319 319 321 322 322 324 323 322 321 321 320 320 321 322 320 319 319 319 319 319 319 319 321 323 323
305 306 308 309 308 310 309 311 312 313 313 314 314 314 314 315 315 315 316 316 316 317 317 320 320 319 319 321 322 321 320 320 321 321 321 322 322 321 319 319 319 319 319 319 320 320 321 321 321 321 321 321 322 323
305 307 309 309 309 309 310 311 311 312 312 312 313 313 314 313 315 315 316 315 315 316 317 319 317 318 318 319 319 320 318 319 321 322 320 320 320 319 319 318 318 319 319 320 321 321 322 322 322 321 321 322 323 324
307 308 309 309 310 311 311 312 311 312 312 312 313 313 313 314 315 316 314 315 315 316 316 317 317 318 319 319 318 318 319 318 318 321 319 319 318 319 320 321 321 321 320 321 322 322 322 322 322 323 323 323 323 323
308 311 310 310 311 311 312 312 312 312 313 313 313 313 313 314 314 313 314 315 316 316 316 316 316 317 319 320 319 318 318 317 318 318 317 318 318 318 319 320 321 320 320 320 320 321 321 322 322 322 322 324 325 326
308 309 312 311 311 312 312 313 313 313 313 314 314 313 315 316 314 313 314 315 314 314 315 315 315 315 315 316 317 317 317 317 317 317 317 317 318 318 318 318 318 317 317 317 317 317 319 321 322 323 325 326 325 326
309 310 311 312 311 311 311 311 312 312 312 312 314 314 314 314 315 314 314 314 313 313 314 314 314 314 314 315 315 315 315 315 317 317 318 318 318 317 317 317 317 317 318 318 318 318 319 319 319 322 324 324 324 324
310 311 311 310 311 311 311 311 312 312 312 312 313 314 315 314 313 312 312 312 313 313 312 312 312 313 315 315 315 315 314 315 315 316 317 318 317 316 316 316 316 317 319 320 320 319 319 319 319 319 321 320 319 320
310 310 310 311 311 311 311 311 311 311 312 312 312 314 314 314 313 312 313 313 313 313 313 314 313 313 313 313 315 315 315 313 313 313 313 313 313 313 314 314 315 317 318 318 319 319 319 320 322 322 323 322 322 322
310 310 311 311 312 312 312 311 311 312 312 313 313 313 314 315 316 314 314 315 315 315 315 314 315 315 315 314 314 314 314 314 315 315 316 315 315 315 315 315 314 314 315 316 316 316 317 319 320 320 321 322 322 322
310 310 310 311 311 311 312 313 313 313 313 314 315 316 316 316 316 317 316 316 315 316 315 315 316 316 316 315 315 316 316 316 316 317 316 316 316 316 315 315 315 315 315 315 316 316 316 317 318 318 319 320 320 321
Wind_Speed
22 20 18 17 15 13 13 13 14 13 12 13 15 17 17 16 15 13 9 11 11 5 13 12 10 10 9 8 8 12 9 2 7 10 10 10 12 2 5 3 5 2 5 5 3 5 8 19 6 3 10 7 4 7
24 23 20 18 17 14 13 13 13 13 13 11 12 14 16 15 11 10 9 12 12 8 9 24 23 20 16 14 10 8 13 10 5 6 8 6 9 5 4 1 5 1 2 4 6 4 4 6 22 3 8 16 12 13
27 25 22 20 18 16 13 13 13 13 12 11 11 12 13 14 11 9 9 13 17 7 11 12 8 10 7 11 10 8 9 6 8 6 6 7 11 2 2 2 5 3 3 4 7 3 7 10 20 6 16 10 8 6
28 27 25 22 19 17 15 13 13 13 12 11 11 10 12 13 10 9 7 11 9 7 4 4 4 7 8 10 14 10 15 16 11 8 7 9 10 10 4 5 4 5 2 10 18 11 6 13 20 8 8 6 5 5
25 25 26 24 22 19 17 13 13 13 13 11 11 10 10 11 10 9 7 5 3 6 5 9 28 18 12 6 7 10 11 10 8 8 8 9 10 10 8 10 5 12 7 11 5 9 4 9 14 14 10 9 7 8
23 23 22 23 22 20 18 15 13 12 12 12 10 10 9 9 9 7 3 3 2 3 3 5 11 8 9 3 6 8 10 9 8 9 7 8 15 11 6 11 13 7 19 13 7 10 9 10 12 14 14 12 10 10
22 22 21 20 19 19 17 15 13 11 11 11 10 9 9 9 8 7 3 2 4 5 3 6 6 7 6 7 7 5 9 6 8 9 9 10 12 9 10 12 6 2 7 19 8 6 6 9 8 13 16 15 16 14
21 20 18 17 17 16 15 14 13 11 10 10 9 8 9 10 10 8 7 12 5 6 4 4 5 10 12 5 4 1 5 7 5 6 9 10 10 11 11 13 16 11 8 13 13 9 8 11 10 11 12 13 13 12
18 17 16 17 16 14 13 13 12 10 9 8 6 5 5 4 4 3 3 3 8 4 3 4 6 4 1 6 4 3 1 6 7 9 9 7 11 7 8 12 16 16 11 8 5 10 10 10 12 11 13 13 15 11
18 18 17 15 14 13 13 13 10 10 9 8 5 2 3 2 3 2 3 4 3 2 2 5 9 13 11 8 1 1 3 3 6 8 8 10 12 14 15 15 6 8 3 8 8 9 9 9 10 12 12 11 11 12
18 17 16 15 13 12 13 14 13 13 13 5 6 3 2 3 4 3 3 4 5 4 5 6 9 9 7 6 2 2 3 3 3 4 5 3 9 12 15 11 10 5 1 4 5 5 7 9 10 12 12 13 10 10
17 16 14 13 13 13 14 17 17 18 8 7 2 2 4 4 3 4 4 4 5 4 7 8 6 6 1 2 2 3 3 3 6 4 1 4 6 4 9 13 9 4 4 3 1 4 6 7 10 10 12 14 12 11
16 15 14 14 13 13 17 18 19 16 6 3 4 4 3 4 4 5 8 5 5 6 6 6 5 2 3 5 2 4 4 6 8 3 7 7 4 3 6 6 6 5 3 1 3 6 8 10 12 12 11 13 20 18
16 14 14 14 14 15 18 17 21 19 4 3 5 4 6 5 6 9 11 4 2 3 2 3 5 3 4 2 3 4 6 5 4 8 7 5 7 6 3 1 4 6 2 2 3 6 8 9 11 13 13 12 13 13
15 14 13 14 15 16 17 18 21 12 5 4 5 6 9 11 11 8 11 8 4 5 4 4 3 4 4 5 3 4 4 4 5 6 4 6 6 3 2 3 2 1 3 2 4 6 8 10 11 11 14 14 10 9
14 11 15 16 16 18 19 18 15 11 3 3 5 5 7 9 11 12 10 2 3 5 4 2 4 3 7 4 7 8 7 10 4 2 1 8 8 6 4 1 3 4 3 4 5 6 8 10 12 12 15 14 12 9
16 6 7 20 19 21 20 10 6 5 4 5 5 10 13 9 7 4 3 2 2 4 5 4 4 9 4 4 14 9 12 5 6 5 3 1 5 6 4 2 1 4 6 7 8 9 11 13 16 12 11 11 13 12
10 12 5 21 24 19 9 5 5 5 7 5 6 10 11 12 13 3 4 3 3 1 7 4 2 5 5 6 7 3 3 3 1 2 6 4 5 3 3 5 7 8 9 10 10 13 16 17 13 12 15 15 13 15
12 7 15 27 27 10 8 6 4 4 8 7 10 12 11 11 11 11 2 1 1 2 4 3 6 4 11 11 10 7 3 1 6 7 5 6 8 8 11 11 11 14 13 14 16 15 18 15 18 19 18 16 14 12
7 7 18 35 22 6 4 4 6 3 4 6 9 12 13 12 13 12 8 5 7 4 5 5 8 8 8 12 13 12 11 11 8 8 10 8 11 10 8 11 12 14 16 14 15 21 22 18 19 17 14 16 12 13
12 4 13 28 9 4 3 5 6 5 6 10 11 10 10 10 11 11 10 9 9 7 7 7 9 11 14 18 20 17 11 11 11 11 11 11 13 17 17 18 15 17 15 14 10 14 19 18 16 17 19 19 16 16
9 16 6 14 6 3 3 4 3 4 4 7 6 8 12 12 10 12 12 12 11 8 12 12 13 13 13 15 15 23 21 21 20 20 22 22 13 12 11 19 18 12 17 17 17 16 20 20 18 20 20 20 17 17
17 13 5 9 4 5 2 4 5 4 4 2 5 6 6 10 11 9 11 11 12 13 14 12 16 22 18 25 26 25 25 21 12 15 18 18 20 21 21 21 21 17 10 17 19 19 18 17 19 19 20 21 18 18
9 8 4 7 6 4 4 4 3 3 4 10 11 12 11 10 8 9 10 12 12 10 10 12 12 12 14 17 14 13 21 25 21 22 24 19 11 14 21 22 21 21 21 20 20 19 18 18 17 18 20 21 20 20
4 5 4 4 4 5 5 6 5 4 5 9 12 12 9 8 8 12 15 14 12 12 12 12 13 12 12 13 13 14 24 21 10 13 19 20 19 19 18 21 22 23 22 21 19 18 17 16 14 18 19 20 19 19
5 6 5 10 7 5 6 6 9 11 10 14 7 4 6 7 10 8 10 10 12 10 10 10 10 10 11 11 11 10 15 18 18 10 18 18 17 16 10 10 8 13 18 18 16 13 13 15 16 17 17 18 20 17
4 4 5 5 6 8 6 10 8 8 11 8 9 12 6 5 7 8 10 9 6 6 6 15 13 6 8 5 9 9 17 14 10 7 10 14 18 20 17 12 10 15 16 17 8 7 11 15 15 18 13 9 10 9
4 8 11 12 10 7 13 10 9 11 10 10 9 13 5 6 7 9 7 2 11 11 15 15 14 13 18 15 8 3 20 18 11 11 14 13 19 17 18 20 18 15 14 15 15 14 16 15 15 11 8 11 12 12
5 7 9 8 9 7 8 11 13 10 10 10 12 12 12 11 12 13 19 21 22 17 13 14 18 21 19 18 22 16 16 16 11 15 14 11 11 15 21 21 22 20 11 21 23 21 16 16 17 12 8 10 10 13
9 9 9 8 10 6 8 8 10 11 11 11 10 13 13 13 20 24 23 20 17 13 20 24 24 23 15 14 14 20 21 22 22 17 10 11 15 23 21 20 16 13 16 22 18 14 23 17 13 12 14 17 16 21
12 12 12 12 14 13 14 13 12 13 14 14 14 13 14 13 19 26 25 25 23 23 22 17 21 23 21 20 14 13 13 23 25 27 27 26 24 24 23 22 23 13 18 17 16 19 13 21 17 15 15 10 24 19
10 11 10 15 13 13 11 11 11 11 12 13 15 14 13 13 17 12 25 23 20 13 18 19 17 19 26 26 25 25 26 27 26 25 24 25 25 24 25 24 25 27 24 21 19 17 16 14 17 18 19 20 18 14
9 10 12 9 7 9 5 6 5 7 10 14 15 13 12 11 16 12 21 18 16 16 16 23 26 27 29 30 25 25 20 16 17 10 9 8 9 12 16 17 17 19 21 24 23 19 19 18 17 16 12 11 16 14
Wind_Direction
271 277 285 295 295 289 288 300 307 315 331 344 353 359 1 4 6 7 332 358 351 306 297 302 320 303 305 287 285 339 318 301 261 270 251 268 270 34 4 118 111 352 302 278 276 252 253 0 265 232 289 171 280 9
266 267 273 280 287 288 281 282 295 304 308 324 338 350 356 359 2 7 322 346 329 270 290 308 284 271 273 286 296 293 300 308 321 328 327 338 338 359 9 295 61 146 180 330 274 285 253 308 288 155 46 209 174 198
261 261 263 268 274 279 279 276 277 287 292 301 317 335 345 354 355 2 328 337 329 273 288 240 270 201 251 246 249 268 271 306 297 331 312 289 307 186 224 228 124 18 263 228 235 256 316 312 279 116 324 160 63 70
258 259 255 259 263 270 270 269 272 277 284 285 292 312 327 340 344 348 328 334 331 291 284 324 2 239 241 271 256 258 265 293 294 301 282 291 286 295 326 158 135 190 147 251 259 112 46 325 330 309 37 17 1 328
256 256 253 250 254 259 263 256 261 267 269 271 279 291 310 327 330 320 291 315 322 323 321 302 306 271 245 243 264 237 253 265 268 268 266 264 270 283 298 296 225 166 190 254 265 131 160 189 215 305 304 310 309 306
247 250 252 250 249 254 258 254 250 256 264 261 264 277 296 315 328 319 154 131 228 345 289 304 343 271 259 222 247 255 263 266 257 269 268 266 275 281 275 285 302 349 179 223 171 172 158 240 250 290 296 291 305 329
243 246 247 244 242 246 248 245 241 243 255 256 254 269 284 301 304 281 357 156 197 293 268 289 290 160 194 227 245 285 269 238 258 263 255 260 271 267 262 251 247 275 3 305 325 267 288 288 328 342 329 322 314 308
242 244 240 240 242 245 243 236 234 234 241 245 247 261 282 301 290 271 234 227 223 260 258 273 268 251 166 237 226 229 305 300 261 260 270 267 267 251 252 264 286 268 180 238 270 295 323 342 313 297 299 305 291 286
242 240 240 237 235 236 233 225 221 220 225 225 232 259 290 247 245 87 106 159 204 280 276 247 281 306 145 258 182 193 299 273 257 257 246 246 243 243 248 234 257 277 290 289 304 346 316 303 337 333 321 316 306 299
239 242 237 233 234 230 226 209 196 204 199 184 160 210 250 179 209 160 170 176 193 214 252 259 276 268 298 311 107 322 216 245 282 256 248 224 247 252 242 245 246 232 281 349 335 300 328 334 328 329 320 308 296 290
235 232 229 225 221 218 204 194 184 179 163 164 193 224 204 161 209 208 234 218 180 231 208 240 236 255 247 288 286 292 306 254 250 251 215 241 252 248 225 250 228 215 113 276 266 293 316 336 328 326 330 312 305 289
226 225 220 218 215 212 194 182 187 178 184 197 216 200 188 194 225 239 215 218 201 250 183 222 193 203 222 321 270 230 237 274 258 134 197 261 304 188 248 210 141 131 202 226 314 331 338 334 337 329 331 320 326 311
218 216 212 215 209 200 194 186 191 184 175 181 235 184 202 194 205 216 200 203 215 214 202 180 175 182 166 201 226 256 228 248 279 246 253 276 174 95 81 105 135 150 181 195 340 341 340 345 340 341 330 341 336 335
216 212 211 208 206 200 196 189 186 184 207 222 177 217 217 185 224 213 230 198 226 333 147 139 146 164 208 241 261 248 233 264 242 262 257 86 98 73 69 148 162 188 148 35 4 357 358 350 345 334 334 339 319 317
211 209 207 206 201 195 189 184 186 174 206 223 218 218 205 238 248 210 244 262 258 213 167 128 192 212 192 240 244 246 234 246 246 266 88 120 109 118 129 254 219 122 70 15 31 9 355 357 338 341 340 321 331 337
200 205 216 202 195 189 187 178 181 186 233 245 249 250 233 229 236 252 254 292 53 357 108 105 198 225 216 215 221 217 253 264 51 60 106 137 156 157 157 83 20 13 332 342 13 352 340 347 323 339 328 322 323 321
188 204 204 194 182 184 174 171 155 189 217 225 223 239 266 302 280 252 326 261 301 199 207 232 226 215 248 216 226 237 255 351 358 39 83 84 156 153 169 178 287 308 319 327 322 315 315 316 313 323 305 320 309 306
199 213 200 178 166 158 186 213 181 206 222 221 230 238 238 260 273 195 189 253 246 189 254 232 284 246 246 270 263 53 27 29 60 68 320 235 146 125 243 241 249 260 270 274 282 295 297 294 301 299 309 297 304 286
197 196 183 171 166 158 170 195 214 234 216 215 227 254 263 252 253 264 270 123 350 152 149 187 237 236 247 259 266 313 322 250 329 310 261 291 275 202 194 227 252 259 254 263 268 274 283 290 290 288 285 288 289 301
141 156 177 171 169 181 172 180 187 237 245 232 218 240 238 242 251 262 260 254 190 211 214 228 233 232 251 274 285 296 303 307 300 286 292 287 256 270 252 241 255 247 242 248 261 262 262 259 263 274 297 296 311 292
206 202 171 183 209 258 263 189 200 213 210 230 252 252 251 257 253 258 268 257 231 224 242 239 249 264 269 272 275 270 282 292 293 291 292 288 295 310 312 299 288 284 277 259 252 271 280 276 265 272 276 272 279 286
181 176 131 186 215 209 283 257 270 303 251 247 216 225 250 257 249 245 232 242 248 247 250 251 244 247 250 247 255 261 261 264 264 265 270 273 270 270 265 266 266 265 266 271 276 256 256 278 286 277 272 269 264 271
158 168 156 174 206 198 229 252 235 250 248 261 237 252 255 250 252 258 257 256 259 258 258 251 255 256 252 251 258 266 271 273 273 275 274 256 255 262 266 269 270 271 274 274 275 278 278 279 281 278 276 282 278 274
147 173 192 173 200 195 166 209 240 234 254 238 245 252 265 265 251 247 258 256 256 254 255 244 247 252 254 249 250 250 246 244 245 243 248 260 260 261 263 266 264 261 261 264 261 258 254 258 261 265 263 259 253 257
145 198 199 190 191 161 186 174 186 214 236 242 253 251 257 265 264 271 263 259 256 259 254 253 252 254 255 246 241 241 244 240 233 247 247 248 248 250 253 255 253 254 254 254 254 254 255 257 255 255 248 248 252 253
215 196 209 183 167 185 192 202 195 213 236 236 233 242 256 255 256 255 262 260 259 262 263 264 260 280 284 262 253 256 259 243 245 249 243 239 245 248 243 247 250 256 255 252 252 257 269 266 257 257 254 251 250 253
225 199 189 208 197 212 210 221 207 217 222 225 238 237 248 242 249 256 261 276 286 267 315 299 293 275 268 289 306 291 285 251 242 287 287 289 281 247 245 246 252 262 262 273 261 235 248 258 278 272 270 307 318 313
231 190 201 195 213 224 235 247 252 240 232 241 234 238 210 224 254 274 297 334 292 285 265 291 309 294 294 277 243 144 280 282 294 259 250 240 227 239 236 251 258 263 264 264 269 276 277 277 280 281 12 331 302 297
222 210 224 199 211 225 232 249 256 251 253 249 256 259 266 259 260 269 282 290 294 284 294 297 289 291 280 278 280 255 254 262 248 247 239 244 251 260 259 242 241 238 249 254 245 235 242 253 260 281 287 280 291 307
220 221 204 207 212 225 240 249 257 255 259 265 264 267 267 262 260 268 277 282 281 277 274 269 266 270 277 272 264 261 253 252 256 260 255 251 255 259 261 265 259 215 242 246 260 223 219 227 242 252 261 259 251 252
224 241 238 242 239 237 242 252 266 279 282 279 276 277 280 287 282 274 270 267 263 265 267 268 269 264 262 264 264 265 262 259 262 267 273 277 278 276 277 278 279 238 214 250 247 256 232 204 222 239 249 269 294 278
227 223 239 247 248 249 250 268 280 287 287 283 278 277 275 271 274 283 280 274 264 259 254 256 265 267 263 256 256 256 256 257 262 264 263 256 251 249 249 254 262 269 272 260 253 253 250 229 224 231 243 237 244 257
248 250 256 278 287 285 322 350 317 303 286 277 275 270 265 263 273 274 272 250 247 250 243 252 254 252 253 252 257 259 261 273 266 287 250 271 272 280 284 284 286 284 279 279 258 251 263 275 256 259 280 294 280 260